Weather History for Olbia, Italy

Change the Weather History Date:

Saturday, October 12, 2013

  Actual Average Record
Temperature  
Mean Temperature 66 °F -  
Max Temperature 77 °F 68 °F 84 °F (2000)
Min Temperature 55 °F 51 °F 50 °F (2008)
Cooling Degree Days 1    
Growing Degree Days 16 (Base 50)    
Moisture  
Dew Point 55 °F    
Average Humidity 71    
Maximum Humidity 94    
Minimum Humidity 44    
Precipitation  
Precipitation 0.00 in 0.08 in - ()
Sea Level Pressure  
Sea Level Pressure 30.07 in    
Wind  
Wind Speed 5 mph ()    
Max Wind Speed 13 mph    
Max Gust Speed -    
Visibility 6.2 miles    
Events      
Averages and records for this station are not official NWS values.
T = Trace of Precipitation, MM = Missing Value Source: Averaged Metar Reports

Daily Weather History Graph

Daily Weather History Graph

Search for Another Location

Airport:

Trip Planner

Search our weather history database for the weather conditions in past years. The results will help you decide how hot, cold, wet, or windy it might be!

Date:

Astronomy

Oct. 12, 2013 Rise Set
Actual Time 7:30 AM CEST 6:46 PM CEST
Civil Twilight 7:02 AM CEST 7:13 PM CEST
Nautical Twilight 6:30 AM CEST 7:45 PM CEST
Astronomical Twilight 5:58 AM CEST 8:17 PM CEST
Moon 2:45 PM CEST (10/12) 12:12 AM CEST (10/12)
Length of Visible Light 12h 11m
Length of Day
11h 16m
First Quarter, 55% of the Moon is Illuminated
Oct 12
First Quarter
Oct 19
Full
Oct 27
Last Quarter
Nov 3
New
Nov 10
First Quarter

Hourly Weather History & Observations

Time (CEST) Temp. Dew Point Humidity Pressure Visibility Wind Dir Wind Speed Gust Speed Precip Events Conditions
12:20 AM 59.0 °F 51.8 °F 77% 29.98 in - SW 5.8 mph - N/A   Clear
12:50 AM 59.0 °F 51.8 °F 77% 29.98 in - South 3.5 mph - N/A   Clear
1:20 AM 59.0 °F 51.8 °F 77% 30.01 in - SSW 4.6 mph - N/A   Clear
1:50 AM 59.0 °F 51.8 °F 77% 30.01 in - SSW 5.8 mph - N/A   Clear
2:20 AM 62.6 °F 53.6 °F 72% 30.01 in - West 4.6 mph - N/A   Clear
2:50 AM 62.6 °F 51.8 °F 68% 30.01 in - West 6.9 mph - N/A   Clear
3:20 AM 60.8 °F 51.8 °F 72% 30.01 in - WSW 4.6 mph - N/A   Clear
3:50 AM 60.8 °F 51.8 °F 72% 30.01 in - South 3.5 mph - N/A   Clear
4:20 AM 59.0 °F 51.8 °F 77% 30.01 in - Variable 2.3 mph - N/A   Clear
4:50 AM 59.0 °F 51.8 °F 77% 30.01 in - South 4.6 mph - N/A   Clear
5:20 AM 59.0 °F 53.6 °F 82% 30.01 in - SSW 5.8 mph - N/A   Clear
5:50 AM 59.0 °F 51.8 °F 77% 30.01 in - South 5.8 mph - N/A   Clear
6:20 AM 59.0 °F 51.8 °F 77% 30.01 in - SW 3.5 mph - N/A   Clear
6:50 AM 57.2 °F 51.8 °F 82% 30.01 in - SW 4.6 mph - N/A   Clear
7:50 AM 55.4 °F 51.8 °F 88% 29.98 in - SSW 6.9 mph - N/A   Clear
8:20 AM 57.2 °F 51.8 °F 82% 30.01 in - SW 4.6 mph - N/A   Clear
8:50 AM 60.8 °F 53.6 °F 77% 30.04 in - SSW 3.5 mph - N/A   Clear
9:20 AM 64.4 °F 53.6 °F 68% 30.06 in - SSW 3.5 mph - N/A   Clear
9:50 AM 66.2 °F 53.6 °F 64% 30.06 in - SW 4.6 mph - N/A   Clear
10:20 AM 68.0 °F 55.4 °F 64% 30.06 in - West 9.2 mph - N/A   Clear
10:50 AM 68.0 °F 55.4 °F 64% 30.09 in - WSW 9.2 mph - N/A   Clear
11:20 AM 69.8 °F 55.4 °F 60% 30.09 in - West 10.4 mph - N/A   Clear
11:50 AM 68.0 °F 55.4 °F 64% 30.09 in - WNW 9.2 mph - N/A   Clear
12:20 PM 69.8 °F 55.4 °F 60% 30.09 in - West 11.5 mph - N/A   Clear
12:50 PM 71.6 °F 55.4 °F 57% 30.09 in - West 9.2 mph - N/A   Clear
1:20 PM 73.4 °F 55.4 °F 53% 30.09 in - WNW 9.2 mph - N/A   Clear
1:50 PM 75.2 °F 55.4 °F 50% 30.06 in - WNW 6.9 mph - N/A   Clear
2:20 PM 77.0 °F 53.6 °F 44% 30.06 in - Variable 3.5 mph - N/A   Clear
2:50 PM 75.2 °F 55.4 °F 50% 30.06 in - Variable 8.1 mph - N/A   Clear
3:20 PM 71.6 °F 57.2 °F 60% 30.06 in 6.2 mi ENE 10.4 mph - N/A   Partly Cloudy
3:50 PM 73.4 °F 57.2 °F 57% 30.09 in 6.2 mi NE 12.7 mph - N/A   Partly Cloudy
4:20 PM 71.6 °F 55.4 °F 57% 30.09 in 6.2 mi NE 12.7 mph - N/A   Partly Cloudy
4:50 PM 71.6 °F 55.4 °F 57% 30.09 in 6.2 mi NE 10.4 mph - N/A   Partly Cloudy
5:20 PM 71.6 °F 55.4 °F 57% 30.09 in 6.2 mi ENE 8.1 mph - N/A   Partly Cloudy
5:50 PM 69.8 °F 57.2 °F 64% 30.09 in 6.2 mi ENE 4.6 mph - N/A   Partly Cloudy
6:20 PM 69.8 °F 59.0 °F 68% 30.09 in - East 6.9 mph - N/A   Clear
6:50 PM 68.0 °F 57.2 °F 68% 30.12 in - East 5.8 mph - N/A   Clear
7:20 PM 66.2 °F 57.2 °F 73% 30.12 in - East 4.6 mph - N/A   Clear
7:50 PM 66.2 °F 57.2 °F 73% 30.15 in - East 6.9 mph - N/A   Clear
8:50 PM 66.2 °F 59.0 °F 78% 30.15 in - Variable 2.3 mph - N/A   Clear
9:20 PM 64.4 °F 59.0 °F 83% 30.15 in - Variable 2.3 mph - N/A   Clear
9:50 PM 62.6 °F 57.2 °F 82% 30.15 in - SSE 4.6 mph - N/A   Clear
10:20 PM 60.8 °F 57.2 °F 88% 30.15 in - SSW 4.6 mph - N/A   Clear
10:50 PM 60.8 °F 57.2 °F 88% 30.15 in - SSW 4.6 mph - N/A   Clear
11:20 PM 59.0 °F 55.4 °F 88% 30.15 in - South 3.5 mph - N/A   Clear
11:50 PM 59.0 °F 57.2 °F 94% 30.15 in - South 3.5 mph - N/A   Clear